{"data":{"norad_id":52586,"intl_designator":"2022-051BC","name":"STARLINK-3910","alt_names":[],"object_type":"PAYLOAD","status":"ACTIVE","operator":null,"country":"US","launch_date":"2022-05-13","launch_site_code":"AFWTR","launch_vehicle":null,"mission":null,"orbit_class":"UNKNOWN","rcs_meters":null,"size_class":null,"mass_kg":null,"dimensions":null,"purposes":["comms"],"wikipedia_slug":null,"has_3d_model":false,"image_url":null,"decayed_at":null,"tle_current":{"epoch":"2026-09-19T15:24:26.384256Z","epoch_age_seconds":137449,"freshness":"FRESH","line1":"1 52586U 22051BC  26262.64197204  .00000872  00000+0  35891-4 0  9993","line2":"2 52586  53.1613 321.7312 0001126  74.9696 285.1432 15.35407196240953","mean_motion":15.35407196,"eccentricity":0.0001126,"inclination_deg":53.1613,"raan_deg":321.7312,"arg_perigee_deg":74.9696,"mean_anomaly_deg":285.1432,"bstar":3.5891e-5,"rev_number":24095,"period_min":93.786195854197,"perigee_km":458.94133629147,"apogee_km":460.48121972367,"semimajor_km":6837.8482780076,"source":"CELESTRAK","updated_at":"2026-09-20T09:00:40.066721Z"}}}